Time,TemperatureF,DewpointF,PressureIn,WindDirection,WindDirectionDegrees,WindSpeedMPH,WindSpeedGustMPH,Humidity,HourlyPrecipIn,Conditions,Clouds,dailyrainin,SolarRadiationWatts/m^2,SoftwareType,DateUTC
2013-02-23 00:00:00,24.0,24.0,-100.00,WNW,292,3.0,-999.0,100,-99.99,,,-99.99,0.000000,,2013-02-23 06:00:00,
2013-02-23 00:42:00,24.0,24.0,-100.00,WNW,292,3.0,-999.0,100,-99.99,,,-99.99,0.000000,,2013-02-23 06:42:00,
2013-02-23 00:52:00,24.0,24.0,-100.00,WNW,292,3.0,-999.0,100,-99.99,,,-99.99,0.000000,,2013-02-23 06:52:00,
2013-02-23 03:00:00,20.0,20.0,-100.00,WNW,292,4.0,-999.0,98,-99.99,,,-99.99,0.000000,,2013-02-23 09:00:00,
2013-02-23 03:42:00,20.0,20.0,-100.00,WNW,292,4.0,-999.0,98,-99.99,,,-99.99,0.000000,,2013-02-23 09:42:00,
2013-02-23 03:52:00,20.0,20.0,-100.00,WNW,292,4.0,-999.0,98,-99.99,,,-99.99,0.000000,,2013-02-23 09:52:00,
2013-02-23 06:00:00,18.0,18.0,-100.00,West,270,3.0,-999.0,97,-99.99,,,-99.99,0.000000,,2013-02-23 12:00:00,
2013-02-23 06:42:00,18.0,18.0,-100.00,West,270,3.0,-999.0,97,-99.99,,,-99.99,0.000000,,2013-02-23 12:42:00,
2013-02-23 06:52:00,18.0,18.0,-100.00,West,270,3.0,-999.0,97,-99.99,,,-99.99,0.000000,,2013-02-23 12:52:00,
2013-02-23 09:00:00,20.0,19.0,-100.00,West,270,5.0,-999.0,95,-99.99,,,-99.99,82.360001,,2013-02-23 15:00:00,
2013-02-23 09:42:00,20.0,19.0,-100.00,West,270,5.0,-999.0,95,-99.99,,,-99.99,82.360001,,2013-02-23 15:42:00,
2013-02-23 09:52:00,20.0,19.0,-100.00,West,270,5.0,-999.0,95,-99.99,,,-99.99,82.360001,,2013-02-23 15:52:00,
2013-02-23 12:00:00,25.0,21.0,-100.00,WSW,247,10.0,-999.0,82,-99.99,,,-99.99,370.040009,,2013-02-23 18:00:00,
2013-02-23 12:42:00,25.0,21.0,-100.00,WSW,247,10.0,-999.0,82,-99.99,,,-99.99,370.040009,,2013-02-23 18:42:00,
2013-02-23 12:52:00,25.0,21.0,-100.00,WSW,247,10.0,-999.0,82,-99.99,,,-99.99,370.040009,,2013-02-23 18:52:00,
2013-02-23 15:00:00,29.0,21.0,-100.00,WSW,247,9.0,-999.0,70,-99.99,,,-99.99,402.519989,,2013-02-23 21:00:00,
2013-02-23 15:42:00,29.0,21.0,-100.00,WSW,247,9.0,-999.0,70,-99.99,,,-99.99,402.519989,,2013-02-23 21:42:00,
2013-02-23 15:52:00,29.0,21.0,-100.00,WSW,247,9.0,-999.0,70,-99.99,,,-99.99,402.519989,,2013-02-23 21:52:00,
2013-02-23 18:00:00,27.0,22.0,-100.00,WSW,247,6.0,-999.0,83,-99.99,,,-99.99,5.800000,,2013-02-24 00:00:00,
2013-02-23 18:42:00,27.0,22.0,-100.00,WSW,247,6.0,-999.0,83,-99.99,,,-99.99,5.800000,,2013-02-24 00:42:00,
2013-02-23 18:52:00,27.0,22.0,-100.00,WSW,247,6.0,-999.0,83,-99.99,,,-99.99,5.800000,,2013-02-24 00:52:00,
2013-02-23 21:00:00,26.0,25.0,-100.00,West,270,6.0,-999.0,93,-99.99,,,-99.99,0.000000,,2013-02-24 03:00:00,
2013-02-23 21:42:00,26.0,25.0,-100.00,West,270,6.0,-999.0,93,-99.99,,,-99.99,0.000000,,2013-02-24 03:42:00,
2013-02-23 21:52:00,26.0,25.0,-100.00,West,270,6.0,-999.0,93,-99.99,,,-99.99,0.000000,,2013-02-24 03:52:00,